User: anonymous   Login
Location: Unspecified
(0.0000°N, 0.0000°E)
Time: 23:31:54
(UTC+00:00)
Language:

BEIJING 1 (TSINGHUA) - Orbit

View from above orbital plane
View from above orbital plane
View from above satellite
View from above satellite

Ground track
Ground track

The orbit is defined by the following mean orbital elements,

1 28890U          26145.58897208 +.00000000 +00000-0 +51508-4 0 00008
2 28890  98.2878 278.6800 0014579 357.7927   2.3208 14.63516347    03
Epoch (UTC): 25 May 2026 14:08:07
Eccentricity: 0.0014579
inclination: 98.2878°
perigee height: 672 km
apogee height: 692 km
right ascension of ascending node: 278.6800°
argument of perigee: 357.7927°
revolutions per day: 14.63516347
mean anomaly at epoch: 2.3208°

The dashed part of the orbit path shows where the satellite is in the earth's shadow,  

DLR